RH
11 12 16 17 21 23 25 30 31 34 37 40 38 35 34 35 35 35 34 32 29 26 25 26 28 28 28 31 33 34 37 39 44 48 51 44 36 36 39 53 63 70 83 98
19 20 11 12 17 22 24 25 23 27 31 35 34 28 30 29 28 29 29 28 26 25 24 27 28 28 27 32 34 38 40 43 49 52 51 42 37 36 40 54 61 68 89 94
14 9 12 13 15 19 22 24 25 26 30 32 33 24 22 21 23 23 22 23 24 24 25 26 26 26 26 33 36 40 42 43 47 53 49 42 38 37 43 57 61 68 87 89
12 7 13 16 17 19 21 22 25 27 33 30 28 22 23 22 21 22 23 23 24 24 22 22 26 26 26 34 40 42 45 45 47 51 47 39 37 37 45 58 61 72 82 90
13 15 13 14 14 20 19 20 23 27 30 31 25 27 21 26 26 25 28 28 28 27 26 24 25 27 28 36 39 44 49 49 50 52 45 37 36 38 49 60 65 74 80 88
20 17 18 12 13 13 16 18 22 29 32 32 25 26 23 24 25 32 34 33 33 32 32 30 24 26 28 38 42 46 49 52 53 55 45 34 35 41 50 62 66 71 77 88
26 24 14 17 16 15 16 22 32 39 42 34 32 32 22 30 34 36 36 37 36 34 33 32 30 27 30 38 46 50 54 55 57 57 47 33 36 43 50 61 66 71 79 92
55 36 22 12 19 17 17 19 28 32 40 31 34 33 27 29 31 40 42 38 36 35 36 36 35 34 35 42 47 54 59 61 61 60 42 33 37 43 51 60 70 69 83 95
77 48 39 28 16 24 29 32 19 31 40 43 38 34 35 36 42 48 44 39 40 38 39 40 39 42 42 47 54 58 63 66 65 60 35 32 39 44 47 50 54 63 81 90
91 85 61 52 31 28 32 23 39 39 42 45 41 44 38 48 49 51 49 46 44 39 41 43 45 51 54 52 59 63 67 70 66 51 33 32 40 44 46 47 50 60 70 84
98 89 57 61 41 22 27 37 41 34 36 34 35 36 38 44 54 52 47 45 44 43 46 49 51 61 64 63 66 70 71 73 67 48 33 33 42 44 46 46 50 59 64 72
98 94 78 52 80 78 46 28 36 38 35 34 35 36 44 47 50 50 52 49 49 48 47 52 58 69 73 73 73 74 78 78 69 47 33 33 43 46 46 46 49 58 62 74
96 93 91 62 63 81 89 72 45 37 39 35 41 31 43 50 57 57 55 56 56 51 47 53 61 74 84 82 82 83 86 80 69 49 34 34 42 45 46 47 48 54 61 66
93 98 98 84 70 75 85 93 84 56 41 31 39 49 57 56 56 60 59 58 58 57 55 59 64 75 86 92 93 91 90 85 72 51 35 32 41 44 46 49 50 51 55 60
85 97 96 93 76 69 81 80 79 81 64 47 29 36 49 57 65 64 61 63 64 65 64 66 71 79 83 92 97 95 91 91 76 60 42 38 39 43 44 49 51 53 56 57
67 88 83 89 81 67 68 78 75 64 72 67 59 58 57 55 63 67 62 66 69 74 74 78 82 79 90 94 97 98 97 91 78 69 53 48 48 45 45 46 48 51 54 56
57 74 62 54 68 78 77 81 77 70 69 65 60 61 64 69 69 71 70 71 78 80 79 75 81 82 86 94 93 96 96 91 85 82 64 58 60 58 54 50 48 49 51 54
47 56 60 56 65 79 63 81 70 75 81 77 71 73 74 77 79 80 81 78 81 81 79 72 80 79 80 87 91 93 93 95 89 83 71 76 76 72 69 65 61 56 52 50
52 52 56 57 56 59 71 77 81 80 85 77 76 82 85 85 81 84 86 84 80 77 73 70 74 76 75 75 82 87 85 85 92 88 80 80 82 86 83 78 74 74 70 66
63 53 55 48 55 62 68 62 62 80 80 87 81 86 80 84 94 95 91 86 78 86 75 74 72 68 63 68 73 71 70 74 80 90 85 86 83 83 86 81 84 85 83 82
81 79 68 55 52 38 52 62 64 79 81 92 90 95 95 96 93 85 81 70 64 58 57 55 55 58 56 61 62 61 66 62 65 75 78 81 79 85 84 79 78 82 80 80
93 89 82 75 64 44 44 55 72 82 86 91 87 87 88 88 79 74 66 60 57 53 52 52 49 51 51 50 57 57 56 65 58 53 56 57 63 68 77 75 79 76 74 76
97 98 91 72 59 41 46 60 67 71 87 90 85 83 80 83 75 66 59 53 51 51 50 50 46 46 51 47 52 55 52 51 54 58 53 48 48 47 55 64 67 73 74 75
95 96 95 89 73 63 53 57 66 68 76 80 83 82 77 76 73 65 61 56 52 49 44 41 39 39 45 43 42 45 48 44 44 45 49 49 50 50 45 49 60 65 71 76
98 97 98 88 83 88 63 59 64 71 89 87 81 78 75 75 73 66 60 54 50 45 43 43 40 42 46 45 44 43 42 44 42 43 44 42 41 42 44 47 49 53 62 68
98 98 98 98 88 90 76 63 77 85 94 94 89 91 84 77 74 67 61 56 52 48 44 41 39 40 38 40 45 46 47 47 47 49 48 49 49 49 53 54 54 54 57 63